SCP
0 0 0 0 0 0 0 0 0 0 0 0 0 0 0 0 0 0 0 0 0 0 0 0 0 0 0 0 0 0 0 0 0 0 0 0 0 0 0 0 0 0 0
0 0 0 0 0 0 0 0 0 0 0 0 0 0 0 0 0 0 0 0 0 0 0 0 0 0 0 0 0 0 0 0 0 0 0 0 0 0 0 0 0 0 0
0 0 0 0 0 0 0 0 0 0 0 0 0 0 0 0 0 0 0 0 0 0 0 0 0 0 0 0 0 0 0 0 0 0 0 0 0 0 0 0 0 0 0
0 0 0 0 0 0 0 0 0 0 0 0 0 0 0 0 0 0 0 0 0 0 0 0 0 0 0 0 0 0 0 0 0 0 0 0 0 0 0 0 0 0 0
0 0 0 0 0 0 0 0 0 0 0 0 0 0 0 0 0 0 0 0 0 0 0 0 0 0 0 0 0 0 0 0 0 0 0 0 0 0 0 0 0 0 0
0 0 0 0 0 0 0 0 0 0 0 0 0 0 0 0 0 0 0 0 0 0 0 0 0 0 0 0 0 0 0 0 0 0 0 0 0 0 0 0 0 0 0
0 0 0 0 0 0 0 0 0 0 0 0 0 0 0 0 0 0 0 0 0 0 0 0 0 0 0 0 0 0 0 0 0 0 0 0 0 0 0 0 0 0 0
0 0 0 0 0 0 0 0 0 0 0 0 0 0 0 0 0 0 0 0 0 0 0 0 0 0 0 0 0 0 0 0 0 0 0 0 0 0 0 0 0 0 0
0 0 0 0 0 0 0 0 0 0 0 0 0 0 0 0 0 0 0 0 0 0 0 0 0 0 0 0 0 0 0 0 0 0 0 0 0 0 0 0 0 0 0
0 0 0 0 0 0 0 0 0 0 0 0 0 0 0 0 0 0 0 0 0 0 0 0 0 0 0 0 0 0 0 0 0 0 0 0 0 0 0 0 0 0 0
0 0 0 0 0 0 0 0 0 0 0 0 0 0 0 0 0 0 0 0 0 0 0 0 0 0 0 0 0 0 0 0 0 0 0 0 0 0 0 0 0 0 0
0 0 0 0 0 0 0 0 0 0 0 0 0 0 0 0 0 0 0 0 0 0 0 0 0 0 0 0 0 0 0 0 0 0 0 0 0 0 0 0 0 0 0
-0 0 0 0 0 0 0 0 0 0 0 0 0 0 0 0 0 0 0 0 0 0 0 0 0 0 0 0 0 0 0 0 0 0 0 0 0 0 0 0 0 0 0
-0 0 0 0 0 0 0 0 0 0 0 0 0 0 0 0 0 0 0 0 0 0 0 0 0 0 0 0 0 0 0 0 0 0 0 0 0 0 0 0 0 0 0
0 0 0 0 0 0 0 0 0 0 0 0 0 0 0 0 0 0 0 0 0 0 0 0 0 0 0 0 0 0 0 0 0 0 0 0 0 0 0 0 0 0 0
0 0 0 0 0 0 0 0 0 0 0 0 0 0 0 0 0 0 0 0 0 0 0 0 0 0 0 0 0 0 0 0 0 0 0 0 0 0 0 0 0 0 0
0 0 0 0 0 0 0 0 0 0 0 0 0 0 0 0 0 0 0 0 0 0 0 0 0 0 0 0 0 0 0 0 0 0 0 0 0 0 0 0 0 0 0
0 0 0 0 0 0 0 0 0 0 0 0 0 0 0 0 0 0 0 0 0 0 0 0 0 0 0 0 0 0 0 0 0 0 0 0 0 0 0 0 0 0 0
0 0 0 0 0 0 0 0 0 0 0 0 0 0 0 0 0 0 0 0 0 0 0 0 0 0 0 0 0 0 0 0 0 0 0 0 0 0 0 0 0 0 0
0 0 0 0 0 0 0 0 0 0 0 0 0 0 0 0 0 0 0 0 0 0 0 0 0 0 0 0 0 0 0 0 0 0 0 0 0 0 0 0 0 0 0
0 0 0 0 0 0 0 0 0 0 0 0 0 0 0 0 0 0 0 0 0 0 0 0 0 0 0 0 0 0 0 0 0 0 0 0 0 0 0 0 0 0 0
0 0 0 0 0 0 0 0 0 0 0 0 0 0 0 0 0 0 0 0 0 0 0 0 0 0 0 0 0 0 0 0 0 0 0 0 0 0 0 0 0 0 0
0 0 0 0 0 0 0 0 0 0 0 0 0 0 0 0 0 0 0 0 0 0 0 0 0 0 0 0 0 0 0 0 0 0 0 0 0 0 0 0 0 0 0
0 0 0 0 0 0 0 0 0 0 0 0 0 0 0 0 0 0 0 0 0 0 0 0 0 0 0 0 0 0 0 0 0 0 0 0 0 0 0 0 0 0 0
0 0 0 0 0 0 0 0 0 0 0 0 0 0 0 0 0 0 0 0 0 0 0 0 0 0 0 0 0 0 0 0 0 0 0 0 0 0 0 0 0 0 0
0 0 0 0 0 0 0 0 0 0 0 0 0 0 0 0 0 0 0 0 0 0 0 0 0 0 0 0 0 0 0 0 0 0 0 0 0 0 0 0 0 0 0
Wind_Speed_500mb
53 54 57 59 59 57 56 54 51 48 46 43 39 36 33 30 27 25 23 22 22 22 24 25 26 28 27 26 25 24 21 22 22 16 16 13 13 11 11 8 7 6 6
59 63 68 72 70 66 62 59 55 53 50 46 43 39 36 33 30 27 25 24 23 23 24 25 25 25 25 24 23 21 17 13 11 9 5 1 2 4 5 4 3 5 7
73 75 84 85 77 75 71 65 61 57 54 51 49 44 41 35 34 32 29 28 27 27 27 27 26 26 24 23 21 18 14 7 10 14 13 4 4 5 2 1 4 6 10
80 82 91 89 87 82 73 69 65 60 59 57 52 47 42 40 37 35 34 32 32 31 30 29 27 24 23 21 19 17 16 13 7 7 8 11 12 4 2 8 7 9 11
77 83 93 92 87 81 80 74 69 65 64 60 56 51 46 41 41 40 38 36 35 33 32 29 27 26 24 23 21 19 17 14 13 9 8 6 5 6 5 3 11 16 13
71 72 75 80 84 83 81 78 75 70 69 66 63 57 52 50 46 43 42 40 38 36 33 31 29 27 26 24 22 20 18 15 13 11 11 10 6 7 0 2 7 11 16
66 72 77 85 86 89 88 83 80 77 74 72 68 62 57 50 47 45 45 44 43 40 38 35 32 31 28 25 23 20 18 16 13 12 9 8 7 7 6 6 9 12 17
61 72 80 90 93 94 91 88 86 81 79 77 73 66 59 55 51 48 47 45 43 42 40 38 36 32 28 26 23 20 17 15 14 12 10 10 10 10 10 11 14 14 15
46 62 67 78 88 95 93 92 88 83 80 79 75 71 65 61 57 51 49 45 43 43 40 37 34 31 29 26 24 21 19 17 15 14 12 13 14 15 16 18 18 17 12
41 58 67 73 82 89 91 88 86 85 81 77 76 73 68 63 57 53 51 47 45 42 40 38 36 33 30 28 25 23 21 20 18 16 16 17 19 21 22 24 26 28 28
31 46 58 64 71 83 88 90 88 84 81 76 75 73 69 65 62 57 53 52 49 45 43 40 37 35 32 29 27 25 23 22 20 19 20 21 23 26 29 31 33 35 37
16 31 49 60 68 77 86 92 89 83 79 74 75 75 71 68 66 64 57 55 52 48 45 42 40 37 34 32 29 27 25 24 23 23 24 25 28 32 34 36 37 39 41
9 25 38 56 68 77 85 89 89 84 79 75 75 75 74 70 69 65 60 58 55 51 48 45 42 39 36 34 31 30 28 27 27 27 29 31 34 36 37 38 42 45 48
17 29 42 51 60 72 79 86 86 84 82 79 74 73 74 71 68 64 61 58 55 51 48 45 42 40 38 37 35 33 32 31 32 34 35 37 40 41 43 46 48 51 54
32 38 50 58 60 69 77 80 83 87 86 80 75 72 71 68 64 63 61 57 54 51 49 46 45 43 41 39 38 36 35 36 37 39 41 40 41 43 47 50 51 51 53
48 46 50 65 74 75 78 79 81 82 83 81 77 73 67 64 63 61 58 56 54 52 50 49 46 43 42 40 40 38 39 39 38 38 39 40 43 46 47 49 50 51 52
53 52 55 64 73 78 80 82 83 82 81 80 76 72 66 63 62 58 55 54 53 52 51 48 45 43 42 41 39 37 36 34 34 36 39 41 44 45 47 49 51 54 54
60 58 49 53 65 74 72 77 77 80 79 79 75 71 67 63 60 57 55 55 54 50 46 43 42 40 37 38 33 30 30 32 34 35 38 40 43 44 47 51 55 57 57
48 43 38 45 53 63 63 68 70 70 71 73 72 69 67 65 63 61 57 54 50 47 44 41 38 34 30 30 28 26 26 27 29 32 37 41 43 44 47 52 57 57 63
16 20 29 38 43 54 61 67 70 71 71 71 68 65 63 61 60 58 56 51 46 43 40 37 33 30 26 26 25 22 20 23 28 35 39 43 48 48 47 42 47 55 67
6 13 21 31 37 49 60 67 68 67 65 63 60 58 56 57 56 55 50 47 44 40 36 32 28 25 22 18 18 20 25 28 34 40 45 48 50 48 39 43 55 63 63
7 14 23 31 39 45 52 58 59 57 56 55 54 55 55 54 53 50 48 43 40 37 33 29 24 18 13 15 18 24 31 35 42 46 49 53 48 44 48 52 55 56 59
12 19 26 31 34 37 42 52 51 51 54 55 58 58 57 55 52 49 48 44 38 32 27 22 14 9 10 16 25 32 35 36 37 46 46 47 48 53 65 72 52 60 75
20 26 33 40 43 43 46 44 53 54 56 60 60 59 57 57 52 48 42 37 32 26 18 10 4 9 18 25 28 33 39 45 49 56 59 68 67 74 68 76 76 71 68
32 38 44 50 55 54 52 53 55 57 61 62 63 61 57 52 49 43 36 28 21 13 7 5 12 20 24 28 28 34 42 44 48 55 70 76 75 74 76 73 69 67 63
44 49 51 54 61 60 62 62 59 55 59 64 62 58 55 50 42 34 30 21 11 2 8 14 19 27 30 32 37 40 43 47 49 57 67 71 71 70 69 69 70 67 63
Wind_Direction_500mb
208 204 204 205 207 207 209 209 207 205 202 198 195 193 191 188 184 177 171 166 162 158 152 151 148 145 143 141 137 135 132 133 126 112 112 102 107 100 105 88 76 50 20
208 205 208 210 210 209 209 208 207 207 202 199 194 193 192 187 185 178 174 169 163 158 153 151 150 148 146 146 144 143 145 151 151 146 164 225 26 74 114 93 52 13 351
205 202 210 211 210 210 210 209 208 207 203 200 198 195 193 191 186 181 178 172 167 162 159 155 156 155 155 155 155 155 151 167 179 168 167 222 216 221 239 264 321 329 328
209 205 210 207 210 211 210 210 209 207 204 203 200 198 197 193 190 188 183 178 176 169 166 164 164 164 167 167 164 163 160 154 150 154 182 195 192 215 236 288 294 306 311
208 202 212 213 211 209 210 209 209 207 206 204 201 197 196 195 196 193 187 184 182 176 174 172 171 172 173 171 170 171 174 179 179 194 200 199 205 206 168 240 319 319 312
210 207 210 207 208 210 209 209 208 207 206 204 202 199 198 201 199 195 192 190 188 184 182 182 181 180 179 177 176 179 180 184 190 198 207 205 210 259 6 324 285 259 284
208 203 199 200 203 207 207 208 208 207 206 204 203 201 201 203 203 201 199 197 194 192 190 190 188 188 187 185 187 189 191 197 205 213 223 232 242 255 267 271 282 294 289
210 206 201 202 204 208 208 207 207 207 206 205 204 204 204 204 204 204 204 202 200 198 196 195 195 193 192 194 197 201 206 213 223 232 246 261 274 283 292 295 301 313 295
216 210 205 201 202 209 209 208 207 207 208 207 206 206 206 206 205 207 207 205 204 205 203 203 202 199 200 202 206 209 216 225 236 246 260 275 286 294 297 298 302 298 301
219 209 204 201 205 212 210 209 210 209 209 209 209 210 210 210 209 211 211 211 212 212 210 209 208 208 209 212 216 220 225 232 242 256 270 281 289 294 296 298 299 297 288
238 212 203 201 200 210 209 208 209 208 209 210 210 212 213 212 213 214 214 216 217 215 214 214 214 215 217 219 223 228 233 241 250 259 270 279 287 292 296 297 298 295 291
254 219 204 196 196 206 208 207 207 208 210 210 210 211 212 213 213 215 216 217 218 218 218 218 218 220 222 225 229 234 241 248 257 266 275 281 286 291 294 294 293 291 290
235 213 210 202 197 202 205 207 208 209 210 210 211 211 213 213 215 216 217 218 219 219 220 221 223 225 227 230 234 240 247 255 262 268 275 281 285 288 289 288 290 292 291
272 217 210 213 206 203 205 207 207 209 211 211 211 212 213 215 216 216 218 219 219 221 222 223 225 227 230 234 240 246 252 257 263 269 274 280 284 286 289 290 291 291 291
270 248 218 208 210 209 209 209 211 211 212 211 211 213 214 215 215 216 218 219 219 220 221 222 225 229 234 239 245 250 256 261 266 272 276 281 285 287 288 291 294 295 297
262 265 245 230 219 215 213 210 209 210 210 211 211 212 212 212 213 215 216 216 218 219 220 222 226 231 237 242 247 253 258 263 266 272 280 283 285 287 291 293 294 296 296
271 259 258 247 230 221 213 211 208 211 209 209 209 210 210 209 211 212 212 212 214 216 218 222 227 232 237 242 246 252 257 264 271 276 280 283 286 290 292 293 294 294 295
275 271 267 244 232 223 216 214 212 211 208 206 206 207 207 207 207 206 206 207 212 216 217 219 221 226 230 240 246 252 260 267 272 277 281 284 288 293 297 298 298 298 299
276 273 266 237 227 218 211 207 203 202 200 200 202 203 205 204 204 204 205 207 209 209 209 211 213 216 222 240 249 255 262 270 277 282 285 289 293 297 298 299 305 306 299
274 233 221 214 211 207 203 198 194 193 193 195 197 201 202 202 200 199 199 200 200 201 199 200 202 208 217 238 252 260 272 284 290 293 297 298 299 301 308 317 305 297 295
249 208 191 189 187 188 190 188 186 187 189 191 192 191 191 192 193 191 190 190 188 188 187 189 193 203 215 237 262 282 296 298 297 299 301 299 302 308 309 300 293 295 304
185 179 178 173 174 179 182 176 174 175 177 177 176 175 176 177 175 179 173 173 175 176 176 180 183 192 216 265 294 299 294 295 297 299 298 302 312 302 300 301 301 302 298
178 173 171 166 163 167 170 168 161 163 164 164 161 162 162 161 161 164 163 163 164 166 167 172 187 223 282 296 290 291 293 298 305 303 308 302 297 303 303 309 306 301 302
159 158 157 156 151 153 156 162 156 156 157 154 151 151 153 152 152 154 154 156 156 160 166 182 250 283 276 280 290 302 306 308 311 314 312 305 302 304 303 305 306 305 304
153 153 153 150 145 149 148 148 149 154 153 150 147 146 146 145 144 143 142 145 146 156 166 237 273 279 291 302 311 313 312 316 314 311 298 299 302 303 305 305 304 305 305
154 150 149 150 145 146 144 144 146 153 151 146 144 143 143 142 141 143 142 143 141 170 276 284 294 300 302 303 310 313 314 314 312 297 297 300 302 304 305 305 304 305 306
Wind_Speed_850mb
53 54 57 59 59 57 56 54 51 48 46 43 39 36 33 30 27 25 23 22 22 22 24 25 26 28 27 26 25 24 21 22 22 16 16 13 13 11 11 8 7 6 6
59 63 68 72 70 66 62 59 55 53 50 46 43 39 36 33 30 27 25 24 23 23 24 25 25 25 25 24 23 21 17 13 11 9 5 1 2 4 5 4 3 5 7
73 75 84 85 77 75 71 65 61 57 54 51 49 44 41 35 34 32 29 28 27 27 27 27 26 26 24 23 21 18 14 7 10 14 13 4 4 5 2 1 4 6 10
80 82 91 89 87 82 73 69 65 60 59 57 52 47 42 40 37 35 34 32 32 31 30 29 27 24 23 21 19 17 16 13 7 7 8 11 12 4 2 8 7 9 11
77 83 93 92 87 81 80 74 69 65 64 60 56 51 46 41 41 40 38 36 35 33 32 29 27 26 24 23 21 19 17 14 13 9 8 6 5 6 5 3 11 16 13
71 72 75 80 84 83 81 78 75 70 69 66 63 57 52 50 46 43 42 40 38 36 33 31 29 27 26 24 22 20 18 15 13 11 11 10 6 7 0 2 7 11 16
66 72 77 85 86 89 88 83 80 77 74 72 68 62 57 50 47 45 45 44 43 40 38 35 32 31 28 25 23 20 18 16 13 12 9 8 7 7 6 6 9 12 17
61 72 80 90 93 94 91 88 86 81 79 77 73 66 59 55 51 48 47 45 43 42 40 38 36 32 28 26 23 20 17 15 14 12 10 10 10 10 10 11 14 14 15
46 62 67 78 88 95 93 92 88 83 80 79 75 71 65 61 57 51 49 45 43 43 40 37 34 31 29 26 24 21 19 17 15 14 12 13 14 15 16 18 18 17 12
41 58 67 73 82 89 91 88 86 85 81 77 76 73 68 63 57 53 51 47 45 42 40 38 36 33 30 28 25 23 21 20 18 16 16 17 19 21 22 24 26 28 28
31 46 58 64 71 83 88 90 88 84 81 76 75 73 69 65 62 57 53 52 49 45 43 40 37 35 32 29 27 25 23 22 20 19 20 21 23 26 29 31 33 35 37
16 31 49 60 68 77 86 92 89 83 79 74 75 75 71 68 66 64 57 55 52 48 45 42 40 37 34 32 29 27 25 24 23 23 24 25 28 32 34 36 37 39 41
9 25 38 56 68 77 85 89 89 84 79 75 75 75 74 70 69 65 60 58 55 51 48 45 42 39 36 34 31 30 28 27 27 27 29 31 34 36 37 38 42 45 48
17 29 42 51 60 72 79 86 86 84 82 79 74 73 74 71 68 64 61 58 55 51 48 45 42 40 38 37 35 33 32 31 32 34 35 37 40 41 43 46 48 51 54
32 38 50 58 60 69 77 80 83 87 86 80 75 72 71 68 64 63 61 57 54 51 49 46 45 43 41 39 38 36 35 36 37 39 41 40 41 43 47 50 51 51 53
48 46 50 65 74 75 78 79 81 82 83 81 77 73 67 64 63 61 58 56 54 52 50 49 46 43 42 40 40 38 39 39 38 38 39 40 43 46 47 49 50 51 52
53 52 55 64 73 78 80 82 83 82 81 80 76 72 66 63 62 58 55 54 53 52 51 48 45 43 42 41 39 37 36 34 34 36 39 41 44 45 47 49 51 54 54
60 58 49 53 65 74 72 77 77 80 79 79 75 71 67 63 60 57 55 55 54 50 46 43 42 40 37 38 33 30 30 32 34 35 38 40 43 44 47 51 55 57 57
48 43 38 45 53 63 63 68 70 70 71 73 72 69 67 65 63 61 57 54 50 47 44 41 38 34 30 30 28 26 26 27 29 32 37 41 43 44 47 52 57 57 63
16 20 29 38 43 54 61 67 70 71 71 71 68 65 63 61 60 58 56 51 46 43 40 37 33 30 26 26 25 22 20 23 28 35 39 43 48 48 47 42 47 55 67
6 13 21 31 37 49 60 67 68 67 65 63 60 58 56 57 56 55 50 47 44 40 36 32 28 25 22 18 18 20 25 28 34 40 45 48 50 48 39 43 55 63 63
7 14 23 31 39 45 52 58 59 57 56 55 54 55 55 54 53 50 48 43 40 37 33 29 24 18 13 15 18 24 31 35 42 46 49 53 48 44 48 52 55 56 59
12 19 26 31 34 37 42 52 51 51 54 55 58 58 57 55 52 49 48 44 38 32 27 22 14 9 10 16 25 32 35 36 37 46 46 47 48 53 65 72 52 60 75
20 26 33 40 43 43 46 44 53 54 56 60 60 59 57 57 52 48 42 37 32 26 18 10 4 9 18 25 28 33 39 45 49 56 59 68 67 74 68 76 76 71 68
32 38 44 50 55 54 52 53 55 57 61 62 63 61 57 52 49 43 36 28 21 13 7 5 12 20 24 28 28 34 42 44 48 55 70 76 75 74 76 73 69 67 63
44 49 51 54 61 60 62 62 59 55 59 64 62 58 55 50 42 34 30 21 11 2 8 14 19 27 30 32 37 40 43 47 49 57 67 71 71 70 69 69 70 67 63
Wind_Direction_850mb
208 204 204 205 207 207 209 209 207 205 202 198 195 193 191 188 184 177 171 166 162 158 152 151 148 145 143 141 137 135 132 133 126 112 112 102 107 100 105 88 76 50 20
208 205 208 210 210 209 209 208 207 207 202 199 194 193 192 187 185 178 174 169 163 158 153 151 150 148 146 146 144 143 145 151 151 146 164 225 26 74 114 93 52 13 351
205 202 210 211 210 210 210 209 208 207 203 200 198 195 193 191 186 181 178 172 167 162 159 155 156 155 155 155 155 155 151 167 179 168 167 222 216 221 239 264 321 329 328
209 205 210 207 210 211 210 210 209 207 204 203 200 198 197 193 190 188 183 178 176 169 166 164 164 164 167 167 164 163 160 154 150 154 182 195 192 215 236 288 294 306 311
208 202 212 213 211 209 210 209 209 207 206 204 201 197 196 195 196 193 187 184 182 176 174 172 171 172 173 171 170 171 174 179 179 194 200 199 205 206 168 240 319 319 312
210 207 210 207 208 210 209 209 208 207 206 204 202 199 198 201 199 195 192 190 188 184 182 182 181 180 179 177 176 179 180 184 190 198 207 205 210 259 6 324 285 259 284
208 203 199 200 203 207 207 208 208 207 206 204 203 201 201 203 203 201 199 197 194 192 190 190 188 188 187 185 187 189 191 197 205 213 223 232 242 255 267 271 282 294 289
210 206 201 202 204 208 208 207 207 207 206 205 204 204 204 204 204 204 204 202 200 198 196 195 195 193 192 194 197 201 206 213 223 232 246 261 274 283 292 295 301 313 295
216 210 205 201 202 209 209 208 207 207 208 207 206 206 206 206 205 207 207 205 204 205 203 203 202 199 200 202 206 209 216 225 236 246 260 275 286 294 297 298 302 298 301
219 209 204 201 205 212 210 209 210 209 209 209 209 210 210 210 209 211 211 211 212 212 210 209 208 208 209 212 216 220 225 232 242 256 270 281 289 294 296 298 299 297 288
238 212 203 201 200 210 209 208 209 208 209 210 210 212 213 212 213 214 214 216 217 215 214 214 214 215 217 219 223 228 233 241 250 259 270 279 287 292 296 297 298 295 291
254 219 204 196 196 206 208 207 207 208 210 210 210 211 212 213 213 215 216 217 218 218 218 218 218 220 222 225 229 234 241 248 257 266 275 281 286 291 294 294 293 291 290
235 213 210 202 197 202 205 207 208 209 210 210 211 211 213 213 215 216 217 218 219 219 220 221 223 225 227 230 234 240 247 255 262 268 275 281 285 288 289 288 290 292 291
272 217 210 213 206 203 205 207 207 209 211 211 211 212 213 215 216 216 218 219 219 221 222 223 225 227 230 234 240 246 252 257 263 269 274 280 284 286 289 290 291 291 291
270 248 218 208 210 209 209 209 211 211 212 211 211 213 214 215 215 216 218 219 219 220 221 222 225 229 234 239 245 250 256 261 266 272 276 281 285 287 288 291 294 295 297
262 265 245 230 219 215 213 210 209 210 210 211 211 212 212 212 213 215 216 216 218 219 220 222 226 231 237 242 247 253 258 263 266 272 280 283 285 287 291 293 294 296 296
271 259 258 247 230 221 213 211 208 211 209 209 209 210 210 209 211 212 212 212 214 216 218 222 227 232 237 242 246 252 257 264 271 276 280 283 286 290 292 293 294 294 295
275 271 267 244 232 223 216 214 212 211 208 206 206 207 207 207 207 206 206 207 212 216 217 219 221 226 230 240 246 252 260 267 272 277 281 284 288 293 297 298 298 298 299
276 273 266 237 227 218 211 207 203 202 200 200 202 203 205 204 204 204 205 207 209 209 209 211 213 216 222 240 249 255 262 270 277 282 285 289 293 297 298 299 305 306 299
274 233 221 214 211 207 203 198 194 193 193 195 197 201 202 202 200 199 199 200 200 201 199 200 202 208 217 238 252 260 272 284 290 293 297 298 299 301 308 317 305 297 295
249 208 191 189 187 188 190 188 186 187 189 191 192 191 191 192 193 191 190 190 188 188 187 189 193 203 215 237 262 282 296 298 297 299 301 299 302 308 309 300 293 295 304
185 179 178 173 174 179 182 176 174 175 177 177 176 175 176 177 175 179 173 173 175 176 176 180 183 192 216 265 294 299 294 295 297 299 298 302 312 302 300 301 301 302 298
178 173 171 166 163 167 170 168 161 163 164 164 161 162 162 161 161 164 163 163 164 166 167 172 187 223 282 296 290 291 293 298 305 303 308 302 297 303 303 309 306 301 302
159 158 157 156 151 153 156 162 156 156 157 154 151 151 153 152 152 154 154 156 156 160 166 182 250 283 276 280 290 302 306 308 311 314 312 305 302 304 303 305 306 305 304
153 153 153 150 145 149 148 148 149 154 153 150 147 146 146 145 144 143 142 145 146 156 166 237 273 279 291 302 311 313 312 316 314 311 298 299 302 303 305 305 304 305 305
154 150 149 150 145 146 144 144 146 153 151 146 144 143 143 142 141 143 142 143 141 170 276 284 294 300 302 303 310 313 314 314 312 297 297 300 302 304 305 305 304 305 306